This is the latest recevied weather packets stored in our database for station/object K5FEP. If no packets are shown the sender has not sent any weather packets the latest 10 day(s).
| Time | Temp. | Humidity | Pressure | Rain* | Wind** | Luminosity | Snow |
|---|---|---|---|---|---|---|---|
| 1777313031 | 20° C | 33% | 1022.6 hPa | 0 mm | - | 951 W/m² | - |
| 1777312727 | 20° C | 36% | 1022.4 hPa | 0 mm | - | 959 W/m² | - |
| 1777312424 | 19.44° C | 35% | 1022.6 hPa | 0 mm | - | 963 W/m² | - |
| 1777312121 | 19.44° C | 35% | 1022.8 hPa | 0 mm | - | 968 W/m² | - |
| 1777311819 | 20° C | 36% | 1022.7 hPa | 0 mm | - | 970 W/m² | - |
| 1777311516 | 19.44° C | 37% | 1022.7 hPa | 0 mm | - | 971 W/m² | - |
| 1777311213 | 18.89° C | 38% | 1022.8 hPa | 0 mm | - | 962 W/m² | - |
| 1777310911 | 19.44° C | 39% | 1022.9 hPa | 0 mm | - | 974 W/m² | - |
| 1777310608 | 18.89° C | 41% | 1022.9 hPa | 0 mm | - | 982 W/m² | - |
| 1777310306 | 19.44° C | 39% | 1022.7 hPa | 0 mm | - | 983 W/m² | - |
| 1777310002 | 18.89° C | 42% | 1022.9 hPa | 0 mm | - | 984 W/m² | - |
| 1777309700 | 18.89° C | 39% | 1022.9 hPa | 0 mm | - | 967 W/m² | - |
| 1777309397 | 18.89° C | 40% | 1023.1 hPa | 0 mm | - | 982 W/m² | - |
| 1777309095 | 18.33° C | 41% | 1023 hPa | 0 mm | - | 972 W/m² | - |
| 1777308793 | 18.33° C | 38% | 1023.1 hPa | 0 mm | - | 980 W/m² | - |
| 1777308488 | 18.33° C | 42% | 1023.1 hPa | 0 mm | - | 977 W/m² | - |
| 1777308183 | 17.78° C | 40% | 1023.3 hPa | 0 mm | - | 975 W/m² | - |
| 1777307879 | 18.33° C | 42% | 1023.4 hPa | 0 mm | - | 971 W/m² | - |
| 1777307578 | 18.33° C | 45% | 1023.3 hPa | 0 mm | - | 968 W/m² | - |
| 1777307274 | 18.33° C | 43% | 1023.3 hPa | 0 mm | - | 966 W/m² | - |
| 1777306971 | 17.78° C | 42% | 1023.1 hPa | 0 mm | - | 961 W/m² | - |
| 1777306669 | 17.78° C | 41% | 1023.3 hPa | 0 mm | - | 957 W/m² | - |
| 1777306365 | 17.78° C | 44% | 1023.4 hPa | 0 mm | - | 952 W/m² | - |
| 1777306059 | 17.22° C | 45% | 1023.7 hPa | 0 mm | - | 943 W/m² | - |
| 1777305757 | 17.22° C | 47% | 1023.5 hPa | 0 mm | - | 936 W/m² | - |
* Rain latest hour (hover to see other rain measurements)
** Current wind speed in m/s (hover to see current wind gust speed)